Wind_Speed
3 2 1 1 2 2 1 2 3 3 4 4 4 4 5 5 5 5 6 6 6 6 6 5 5 5 5 4 3 3 2 2 2 1 0 1 1 1 2 2 2 2 3 3 3 3 3 3 3
5 4 3 1 0 2 3 3 4 4 4 4 4 4 5 5 5 6 6 6 6 6 6 5 5 5 4 3 2 2 2 1 1 1 1 1 1 1 2 2 2 3 2 2 2 3 3 3 3
7 6 4 3 3 4 4 4 4 5 4 4 5 5 5 5 6 6 7 7 6 6 6 6 5 5 4 3 2 2 2 2 2 1 1 1 1 2 2 2 2 2 2 2 2 3 3 4 4
8 7 6 5 6 5 5 5 5 6 5 4 5 5 6 5 6 7 7 7 7 7 6 6 6 5 4 3 2 2 2 2 2 1 1 2 1 1 2 3 3 3 3 3 3 3 3 3 3
10 9 7 8 8 8 7 7 6 6 6 5 5 5 6 6 6 6 7 7 7 7 7 6 5 4 3 3 2 1 1 2 2 2 1 2 2 1 2 3 3 3 3 3 4 4 3 3 3
12 10 10 10 10 9 9 8 7 6 7 6 6 6 7 7 7 6 7 7 7 7 7 6 5 4 4 3 3 2 2 2 3 3 3 3 3 2 2 2 2 2 2 3 4 4 4 4 4
14 13 13 12 12 11 10 9 9 8 8 8 7 7 7 7 7 7 7 7 7 7 6 5 5 5 5 4 4 3 3 3 3 3 3 3 3 4 3 3 3 3 3 3 3 4 5 5 5
15 15 14 14 14 13 12 10 10 9 9 9 8 8 8 8 8 8 8 8 8 7 6 6 5 5 5 5 4 4 4 4 4 4 4 4 4 4 5 5 4 3 3 4 4 5 6 6 6
17 16 16 16 15 15 14 12 11 10 10 10 9 9 9 9 8 8 8 9 8 7 7 6 6 6 6 5 5 4 4 5 5 5 6 5 6 6 4 4 5 5 4 4 5 5 6 7 7
19 18 18 18 17 16 15 13 12 11 11 11 11 11 10 10 10 9 9 9 8 8 7 6 6 7 7 6 5 5 6 5 5 5 5 6 6 6 6 5 5 6 6 5 5 6 6 8 8
20 20 19 19 18 16 15 14 13 13 12 12 12 12 11 11 11 10 10 10 9 8 8 7 6 7 7 7 6 7 7 6 6 6 6 7 6 6 7 7 7 7 7 7 6 7 8 8 8
20 20 20 20 19 17 17 16 15 15 14 13 13 13 13 13 12 12 11 11 10 10 9 8 8 8 8 7 7 7 9 8 7 7 7 7 7 7 8 8 8 8 8 8 8 7 8 9 8
20 20 20 20 19 18 18 17 17 17 16 14 14 14 14 14 13 12 12 11 11 11 11 10 10 9 9 9 8 8 9 9 9 8 8 8 8 8 8 8 8 8 8 8 8 8 8 8 9
20 20 19 20 20 19 19 19 18 18 17 15 15 14 14 15 13 13 12 12 12 12 11 10 11 11 10 10 10 9 9 10 10 10 9 9 8 8 9 9 9 9 9 9 8 8 9 9 10
20 19 19 20 20 20 19 20 20 19 18 17 17 15 14 15 15 14 13 12 12 12 12 12 12 11 10 10 10 10 10 10 10 9 9 9 9 9 10 10 10 10 10 10 9 9 10 10 10
20 19 19 20 21 21 21 20 21 20 19 18 18 16 15 16 16 15 14 13 13 13 13 14 13 12 11 10 10 11 11 11 11 10 10 10 10 10 10 11 11 11 11 10 10 10 10 10 10
19 19 20 21 21 21 21 21 22 21 20 19 18 18 17 17 16 16 15 14 14 14 14 15 14 13 12 12 12 12 12 12 12 11 10 10 10 10 11 11 11 11 12 11 11 11 11 11 11
20 20 20 21 22 22 22 22 22 21 21 20 19 19 18 18 17 17 17 16 15 15 15 15 15 14 14 13 13 13 13 13 12 12 12 11 11 11 11 11 11 11 11 11 11 12 11 11 11
22 21 21 22 23 23 23 23 22 21 21 21 20 20 19 18 18 18 18 18 17 16 16 15 15 15 15 14 13 13 13 13 13 13 12 12 12 12 12 12 12 12 12 11 11 12 12 12 12
22 22 23 24 24 23 23 23 22 22 22 22 21 20 20 19 19 19 19 19 19 18 17 17 16 16 15 15 14 14 14 14 13 13 13 14 14 13 13 13 13 13 12 12 12 12 12 13 12
22 22 23 24 24 24 24 23 23 22 22 22 21 21 21 20 20 20 20 20 19 19 18 18 17 17 17 16 15 15 14 14 13 14 14 15 15 14 14 14 14 14 14 14 13 13 13 14 14
22 23 24 24 24 24 23 23 23 22 22 22 22 21 22 21 20 20 20 20 20 19 19 18 19 19 18 18 17 16 16 15 15 15 15 15 15 16 15 15 15 15 15 15 14 14 15 15 15
22 24 25 25 25 25 24 23 22 22 22 22 23 23 22 23 22 21 21 20 20 20 20 20 20 20 19 19 18 18 17 16 16 17 17 16 16 16 16 16 16 16 16 16 16 17 17 17 17
23 23 24 25 24 25 23 23 22 23 23 23 23 24 23 23 22 21 20 20 21 21 21 20 20 19 19 19 17 17 18 17 17 17 17 16 16 16 16 16 16 17 17 17 16 17 18 18 18
23 23 23 23 24 23 23 23 23 24 23 23 23 24 24 23 22 21 20 20 20 20 21 20 20 19 19 19 18 18 18 18 18 18 18 17 17 17 18 18 16 17 17 17 17 17 18 19 20
23 23 23 22 21 21 23 23 23 23 22 22 22 23 22 21 21 21 20 20 20 20 21 21 20 20 20 21 20 20 20 20 19 19 19 19 19 19 18 19 18 17 17 17 18 18 18 19 19
24 24 23 23 22 22 22 24 23 21 21 20 20 21 21 21 20 20 20 20 21 21 21 21 21 21 21 21 21 21 20 20 20 20 20 20 19 19 19 18 18 18 18 18 19 19 19 19 20
25 24 24 24 23 21 22 23 22 21 20 19 19 20 21 20 20 20 20 21 21 22 22 22 21 21 21 21 22 22 21 22 21 21 20 20 20 20 20 19 19 19 19 19 20 19 20 20 20
26 26 26 25 24 22 21 22 22 22 20 20 21 20 20 20 20 20 20 21 21 22 22 22 22 22 22 22 22 22 23 24 23 22 22 21 22 22 21 20 20 20 20 20 20 20 20 20 20
25 26 26 26 26 24 22 21 22 21 20 20 20 20 20 20 20 20 20 21 21 21 21 22 22 23 23 23 23 23 23 24 24 23 23 22 22 22 22 21 21 21 20 20 21 20 20 20 20
Wind_Direction
248 246 281 33 50 24 327 322 332 347 359 9 11 12 17 15 6 358 359 2 4 5 3 359 351 347 340 336 338 325 327 305 297 320 280 154 163 184 174 169 178 188 196 201 189 183 184 175 172
246 244 253 261 119 271 285 299 308 322 340 353 1 1 0 5 3 0 356 354 357 357 355 353 346 342 339 336 335 324 331 336 313 316 222 155 161 192 193 185 186 195 206 205 194 184 194 190 181
243 244 251 258 240 238 262 280 292 310 319 334 341 342 348 354 0 353 347 347 349 350 350 347 340 334 337 334 333 327 337 350 345 348 235 199 188 206 203 197 201 206 209 204 208 226 202 198 197
245 247 255 250 247 247 254 266 283 304 307 314 323 331 339 347 347 343 342 344 344 342 339 335 330 334 337 333 341 333 325 333 342 336 246 231 224 201 209 200 207 212 219 220 219 227 206 205 205
248 249 251 250 253 254 256 262 272 291 299 300 307 321 324 330 335 337 338 339 339 339 335 330 329 338 332 324 333 339 317 301 304 304 275 250 247 221 232 215 222 218 224 224 212 218 222 221 219
246 246 244 246 254 255 256 258 261 275 288 293 299 310 316 319 321 327 332 335 335 334 331 329 331 330 322 314 305 297 294 298 288 289 277 269 253 251 260 245 240 240 236 219 214 223 227 225 226
242 243 242 245 251 256 257 255 255 265 277 285 295 302 305 309 311 314 320 327 327 326 326 330 331 325 321 313 306 294 292 293 287 289 273 266 259 254 251 247 237 240 246 230 224 228 230 227 230
243 243 245 246 249 254 254 253 252 261 270 279 286 294 295 298 300 304 310 314 316 315 319 319 320 323 319 314 305 296 291 298 290 282 275 263 264 261 257 248 245 251 253 243 233 233 232 237 240
244 243 245 245 245 249 251 250 252 258 264 274 282 288 292 293 294 296 299 304 304 306 312 311 310 315 312 305 299 290 294 300 291 277 271 270 271 269 258 248 252 264 267 252 247 247 244 246 245
243 243 245 246 246 248 250 251 253 257 262 270 278 283 284 287 289 293 293 295 294 295 302 303 303 305 301 293 286 284 292 296 291 287 282 276 275 272 267 258 261 265 262 258 255 249 249 247 247
244 244 245 245 246 248 249 249 252 255 259 267 274 279 281 283 284 287 290 292 289 288 290 291 291 295 292 285 283 283 287 290 286 285 275 274 274 270 268 268 269 270 260 257 259 254 257 255 252
246 244 243 243 245 247 249 250 251 254 259 266 274 276 279 279 281 282 285 287 285 284 282 280 283 285 285 279 279 282 279 283 283 278 270 272 271 270 273 272 266 270 266 260 259 259 259 258 256
245 245 243 244 245 246 248 250 253 256 260 264 270 274 274 274 274 277 279 281 282 281 279 277 279 281 280 277 277 285 283 277 276 277 277 274 272 272 273 275 274 273 271 261 259 262 263 265 263
246 245 244 245 246 247 248 250 253 257 259 262 265 270 270 268 270 273 276 278 277 278 277 275 277 279 278 277 277 281 286 278 276 274 273 274 270 269 270 273 274 270 268 266 267 268 270 268 268
245 245 244 246 247 248 249 251 254 257 259 262 264 270 269 267 268 271 274 274 274 274 274 274 277 281 280 280 278 279 281 279 279 278 271 269 267 271 272 274 273 268 269 268 267 270 269 268 268
243 243 245 248 249 249 248 249 252 256 260 263 266 269 266 266 269 271 271 270 270 272 272 273 275 278 281 283 283 280 280 279 274 271 269 268 269 273 277 281 279 273 268 265 263 267 269 269 269
244 244 245 250 249 249 249 249 252 255 260 262 264 266 265 264 268 271 272 270 268 270 272 273 273 273 278 282 280 280 279 276 272 270 269 269 268 269 273 278 278 275 271 266 261 265 269 272 271
243 243 245 249 251 250 251 251 253 256 258 260 261 263 263 263 266 269 270 269 267 268 270 270 272 274 278 280 278 279 277 275 274 270 267 266 266 269 273 274 275 276 272 269 265 265 269 272 274
242 241 243 248 250 250 250 252 253 255 258 259 259 260 261 262 265 267 268 267 265 267 269 269 270 271 275 279 279 282 278 274 271 266 265 266 267 268 271 270 270 270 269 268 268 268 271 270 273
243 244 246 248 249 250 251 253 255 255 258 260 261 261 262 262 263 266 267 266 265 265 265 266 267 269 272 274 276 276 276 274 269 265 263 264 266 267 267 268 267 266 266 267 266 267 267 269 271
244 244 247 249 250 251 253 256 256 257 257 259 260 261 262 262 263 264 265 266 264 263 263 263 266 267 269 271 272 274 274 271 267 260 258 262 265 265 268 269 268 265 264 265 264 267 269 269 269
245 247 249 250 252 254 255 257 258 256 256 256 258 260 262 262 264 264 264 263 261 259 260 263 265 267 267 267 269 271 272 268 263 259 259 263 262 263 266 269 270 267 266 265 265 268 270 271 271
245 248 249 250 253 255 257 259 261 258 254 254 256 259 261 262 263 263 262 260 259 259 260 262 263 264 264 266 269 268 269 265 262 259 260 262 262 262 263 267 270 267 267 267 267 268 270 272 273
246 249 250 251 254 256 258 260 258 258 256 254 257 259 260 260 262 262 259 258 258 259 260 261 260 263 264 267 269 268 267 264 262 261 261 262 262 262 263 266 269 267 268 268 270 271 271 272 274
246 248 250 252 253 257 259 260 258 259 257 256 257 259 261 260 260 260 258 258 259 258 258 260 260 263 267 269 270 269 266 264 262 262 262 263 265 265 263 267 270 270 270 270 272 272 270 273 274
247 246 245 249 255 258 260 260 259 261 260 258 257 258 259 260 261 260 258 258 259 258 258 261 263 265 267 268 268 269 267 263 263 263 262 263 264 265 264 267 269 271 272 272 273 273 272 273 274
248 245 245 248 252 254 257 259 260 261 261 261 259 258 258 258 260 259 259 259 260 261 260 260 262 264 267 267 268 268 266 264 265 265 263 262 263 263 266 269 270 271 272 274 276 275 274 275 275
245 245 244 246 251 256 259 261 264 260 260 259 257 258 258 259 262 260 260 260 261 260 261 260 260 264 267 268 268 266 264 265 266 264 262 262 263 264 266 268 269 269 270 273 275 277 275 274 274
247 245 246 247 248 251 258 261 261 262 260 258 257 258 257 258 261 260 260 261 262 261 261 260 260 263 266 267 268 265 264 264 265 262 261 260 262 263 265 268 268 267 269 271 274 276 275 273 273
246 246 247 247 248 248 251 259 258 259 259 259 258 258 258 259 261 261 261 263 263 261 261 260 261 263 263 265 266 264 265 263 261 260 261 259 261 262 265 267 267 267 269 271 273 275 275 273 275
Height
5897 5898 5898 5899 5901 5902 5901 5901 5899 5899 5898 5897 5896 5895 5894 5894 5894 5894 5891 5888 5888 5886 5885 5884 5883 5882 5882 5881 5880 5879 5879 5878 5877 5877 5876 5876 5876 5876 5876 5876 5876 5876 5876 5876 5876 5877 5877 5878 5878
5896 5897 5898 5899 5901 5902 5901 5899 5899 5898 5897 5896 5895 5894 5893 5892 5892 5891 5889 5888 5887 5886 5885 5884 5883 5882 5881 5880 5879 5879 5878 5877 5877 5876 5875 5875 5875 5875 5875 5875 5876 5876 5875 5876 5876 5876 5877 5877 5878
5895 5896 5897 5899 5900 5901 5900 5898 5897 5896 5896 5895 5894 5893 5893 5892 5891 5890 5889 5887 5886 5885 5884 5883 5882 5881 5881 5880 5879 5878 5877 5877 5876 5876 5875 5875 5875 5874 5875 5875 5875 5875 5875 5875 5875 5876 5876 5877 5877
5893 5894 5896 5898 5898 5898 5897 5897 5896 5895 5895 5894 5893 5893 5891 5891 5890 5889 5888 5887 5885 5884 5883 5882 5882 5881 5880 5879 5879 5878 5877 5876 5876 5875 5875 5874 5874 5874 5874 5874 5874 5874 5874 5875 5875 5875 5876 5876 5877
5891 5893 5895 5896 5896 5896 5895 5895 5894 5894 5894 5893 5893 5891 5890 5890 5889 5888 5887 5886 5885 5884 5883 5882 5881 5880 5880 5879 5878 5877 5876 5876 5875 5875 5874 5874 5873 5873 5873 5873 5873 5874 5874 5874 5874 5874 5875 5875 5876
5889 5891 5894 5894 5894 5894 5893 5893 5893 5892 5892 5892 5891 5890 5889 5889 5888 5887 5886 5885 5884 5883 5882 5881 5880 5879 5879 5878 5877 5877 5876 5875 5874 5874 5873 5872 5872 5872 5872 5872 5872 5873 5873 5873 5873 5874 5874 5874 5875
5887 5889 5890 5891 5891 5891 5891 5891 5891 5891 5890 5890 5890 5889 5888 5887 5886 5886 5885 5884 5883 5882 5881 5880 5879 5878 5877 5877 5876 5876 5875 5874 5874 5873 5872 5872 5871 5871 5871 5871 5871 5872 5872 5872 5872 5873 5873 5873 5873
5883 5886 5887 5888 5889 5889 5889 5889 5889 5889 5888 5888 5888 5888 5887 5886 5885 5884 5884 5883 5881 5881 5880 5879 5878 5877 5876 5876 5875 5874 5873 5873 5872 5872 5871 5871 5871 5870 5870 5870 5870 5871 5871 5871 5871 5871 5872 5872 5872
5880 5883 5884 5885 5885 5885 5885 5886 5886 5887 5886 5886 5886 5886 5885 5884 5883 5883 5882 5881 5880 5879 5879 5878 5877 5876 5875 5874 5874 5873 5872 5871 5871 5871 5870 5870 5870 5869 5869 5869 5869 5869 5869 5869 5870 5870 5870 5870 5871
5876 5879 5880 5880 5881 5882 5882 5883 5884 5884 5884 5884 5884 5883 5883 5882 5881 5881 5880 5879 5878 5878 5877 5876 5875 5875 5874 5873 5872 5872 5871 5870 5870 5869 5869 5869 5868 5868 5868 5868 5868 5868 5868 5868 5868 5868 5868 5869 5869
5872 5874 5875 5875 5877 5878 5879 5880 5881 5881 5882 5881 5881 5881 5880 5880 5879 5879 5878 5877 5876 5876 5875 5874 5874 5873 5872 5872 5871 5870 5869 5868 5868 5868 5868 5867 5867 5866 5866 5866 5865 5865 5866 5866 5866 5866 5867 5867 5867
5868 5869 5870 5871 5872 5874 5875 5876 5877 5878 5879 5879 5879 5878 5878 5878 5877 5876 5875 5875 5874 5873 5873 5872 5872 5871 5870 5870 5869 5869 5868 5867 5867 5866 5866 5866 5865 5865 5865 5865 5864 5864 5864 5864 5864 5865 5865 5865 5864
5863 5865 5866 5867 5868 5870 5871 5872 5873 5874 5875 5875 5875 5875 5875 5874 5874 5873 5873 5872 5872 5871 5870 5870 5870 5869 5869 5868 5867 5867 5866 5866 5865 5864 5865 5864 5864 5863 5863 5863 5863 5862 5862 5862 5862 5863 5863 5863 5863
5859 5860 5862 5863 5864 5866 5868 5869 5870 5871 5871 5872 5872 5872 5872 5872 5871 5870 5870 5870 5869 5869 5868 5868 5867 5866 5866 5866 5865 5865 5864 5864 5864 5863 5863 5863 5862 5862 5862 5861 5861 5861 5861 5861 5861 5861 5861 5861 5861
5854 5856 5858 5859 5861 5862 5864 5865 5866 5867 5867 5868 5869 5869 5869 5869 5868 5867 5867 5867 5866 5866 5866 5865 5865 5864 5864 5864 5863 5863 5862 5862 5862 5861 5861 5861 5861 5860 5860 5859 5859 5859 5859 5859 5859 5859 5859 5859 5859
5850 5853 5855 5856 5857 5858 5861 5863 5863 5863 5863 5865 5865 5865 5865 5865 5865 5864 5864 5864 5864 5863 5863 5863 5862 5861 5862 5861 5861 5860 5860 5859 5859 5859 5859 5859 5859 5858 5858 5858 5858 5857 5857 5857 5857 5857 5857 5857 5857
5847 5849 5851 5852 5853 5854 5856 5858 5858 5858 5859 5860 5861 5862 5862 5862 5862 5861 5861 5861 5861 5860 5860 5860 5859 5859 5859 5858 5858 5858 5857 5857 5856 5856 5857 5857 5856 5856 5856 5856 5856 5855 5855 5854 5855 5855 5855 5855 5855
5844 5845 5847 5848 5848 5850 5852 5853 5854 5854 5855 5856 5856 5857 5857 5858 5858 5857 5857 5857 5857 5857 5857 5857 5856 5856 5856 5855 5855 5855 5854 5854 5854 5854 5854 5854 5854 5854 5854 5854 5854 5853 5853 5852 5852 5852 5852 5852 5852
5838 5840 5842 5843 5843 5845 5847 5848 5849 5850 5850 5851 5851 5852 5853 5853 5853 5853 5853 5853 5853 5853 5853 5853 5854 5853 5853 5853 5852 5851 5851 5851 5851 5851 5851 5851 5851 5851 5851 5851 5851 5851 5850 5850 5850 5850 5850 5850 5849
5833 5835 5837 5838 5838 5840 5841 5843 5844 5845 5846 5846 5846 5847 5847 5848 5849 5849 5849 5849 5849 5849 5850 5850 5850 5850 5850 5850 5849 5849 5848 5848 5848 5848 5848 5848 5848 5848 5848 5848 5848 5848 5847 5847 5847 5847 5847 5846 5846
5828 5830 5832 5832 5833 5835 5836 5838 5839 5840 5840 5841 5841 5842 5842 5843 5844 5844 5844 5844 5845 5845 5846 5846 5846 5846 5846 5846 5846 5845 5845 5845 5844 5844 5845 5845 5844 5844 5844 5844 5844 5844 5844 5844 5844 5843 5843 5843 5843
5823 5825 5826 5827 5828 5830 5831 5833 5834 5834 5835 5835 5836 5836 5837 5838 5839 5839 5840 5840 5840 5841 5841 5842 5842 5842 5842 5842 5842 5842 5841 5841 5840 5841 5841 5841 5841 5841 5841 5841 5841 5840 5840 5840 5840 5840 5839 5839 5839
5818 5819 5820 5822 5823 5824 5826 5827 5829 5828 5829 5830 5830 5831 5832 5832 5833 5834 5834 5835 5836 5836 5837 5837 5837 5838 5838 5838 5837 5837 5837 5837 5836 5836 5837 5837 5837 5837 5837 5837 5836 5836 5836 5836 5836 5836 5835 5835 5835
5812 5813 5815 5816 5817 5819 5820 5822 5823 5823 5824 5824 5825 5825 5826 5827 5828 5828 5829 5830 5830 5831 5832 5832 5833 5833 5833 5833 5833 5833 5832 5832 5832 5832 5832 5832 5832 5832 5832 5832 5832 5832 5832 5832 5831 5831 5831 5830 5830
5806 5809 5810 5811 5812 5814 5814 5815 5816 5817 5818 5819 5819 5820 5820 5821 5822 5823 5824 5825 5825 5826 5826 5827 5828 5828 5828 5828 5828 5828 5827 5827 5827 5827 5827 5828 5828 5828 5828 5827 5827 5827 5827 5827 5827 5826 5826 5826 5825
5800 5803 5806 5808 5809 5810 5808 5808 5811 5811 5812 5812 5813 5814 5815 5816 5817 5818 5819 5820 5820 5821 5821 5822 5822 5823 5823 5823 5823 5823 5822 5822 5822 5822 5822 5822 5823 5823 5823 5823 5823 5823 5823 5822 5822 5821 5821 5821 5820
5794 5796 5799 5801 5802 5803 5803 5803 5804 5805 5806 5807 5808 5808 5810 5811 5812 5813 5814 5814 5815 5816 5816 5817 5817 5817 5817 5817 5817 5817 5817 5817 5817 5817 5817 5817 5818 5818 5818 5818 5818 5818 5818 5817 5817 5816 5816 5815 5815
5788 5790 5792 5794 5795 5797 5798 5798 5799 5800 5801 5802 5802 5803 5804 5806 5807 5808 5808 5809 5810 5810 5810 5811 5812 5812 5812 5812 5811 5811 5811 5811 5812 5812 5812 5812 5812 5813 5813 5813 5813 5813 5813 5812 5812 5811 5811 5810 5809
5782 5784 5785 5788 5790 5792 5793 5796 5794 5794 5795 5796 5797 5798 5799 5800 5801 5802 5803 5803 5804 5804 5805 5805 5806 5806 5806 5806 5806 5806 5806 5806 5806 5806 5806 5807 5807 5807 5807 5807 5807 5807 5807 5807 5806 5806 5805 5804 5803
5774 5777 5779 5781 5783 5784 5787 5791 5788 5788 5789 5790 5791 5792 5793 5794 5795 5796 5797 5797 5798 5799 5799 5799 5800 5800 5800 5800 5800 5800 5800 5800 5800 5800 5800 5801 5801 5801 5801 5801 5801 5801 5801 5801 5801 5800 5799 5799 5798